CONSULTA PERSONALIZADA Alfaro
      Predicción AEMET      
Valores extremos - medios de hoy
Fecha T (C) P (l/m2) Hr (%) Rs (W/m2) VV (km/h) DV Tint.(C)
Max Med Min Acu Med Med Max Med Max Med Min
 05-08-2021   25,8   19,2   16,5   0,0   70   266   19,8   200   30,3   27,5   25,7 
Datos de hoy
Fecha T (C) P (l/m2) Hr (%) Rs (W/m2) VV (km/h) DV Tint.(C)
Max Med Min Acu Med Med Max Med Max Med Min
 05-08-2021 14:00:00   25,8   25,3   24,8   0,0   43   974   19,1   14   27,9   27,8   27,7 
 05-08-2021 13:45:00   25,8   24,9   24,2   0,0   45   967   19,8   14   27,7   27,7   27,6 
 05-08-2021 13:30:00   25,7   24,8   24,2   0,0   46   954   16,6   14   27,6   27,5   27,4 
 05-08-2021 13:15:00   25,2   24,3   23,8   0,0   49   936   18,0   15   27,4   27,3   27,2 
 05-08-2021 13:00:00   24,5   23,6   23,0   0,0   51   916   19,1   32   27,2   27,1   27,0 
 05-08-2021 12:45:00   24,5   23,0   22,3   0,0   54   902   15,1   22   27,0   26,9   26,9 
 05-08-2021 12:30:00   23,2   22,6   22,1   0,0   55   878   13,7   39   26,9   26,8   26,7 
 05-08-2021 12:15:00   23,4   22,5   22,2   0,0   56   852   16,6   31   26,7   26,7   26,6 
 05-08-2021 12:00:00   23,0   22,1   21,5   0,0   57   818   13,0   72   26,6   26,5   26,5 
 05-08-2021 11:45:00   22,4   21,8   21,2   0,0   59   759   12,6   34   26,5   26,4   26,3 
 05-08-2021 11:30:00   21,6   21,2   20,7   0,0   60   685   15,8   8   26,4   26,3   26,2 
 05-08-2021 11:15:00   21,4   20,8   20,5   0,0   63   693   15,5   3   26,2   26,1   26,1 
 05-08-2021 11:00:00   21,2   20,6   20,2   0,0   64   645   11,5   10   26,1   26,0   25,9 
 05-08-2021 10:45:00   21,0   20,6   20,0   0,0   64   512   8,3   26   25,9   25,9   25,8 
 05-08-2021 10:30:00   20,3   19,9   19,5   0,0   67   575   7,2   345   25,9   25,9   25,8 
 05-08-2021 10:15:00   19,9   19,5   19,0   0,0   69   493   11,5   8   25,8   25,8   25,7 
 05-08-2021 10:00:00   19,7   19,0   18,4   0,0   71   487   11,9   3   25,8   25,7   25,7 
 05-08-2021 09:45:00   19,1   18,5   18,1   0,0   72   432   9,0   357   25,8   25,7   25,7 
 05-08-2021 09:30:00   18,8   18,2   17,6   0,0   73   363   10,4   2   25,8   25,7   25,7 
 05-08-2021 09:15:00   18,5   18,1   17,6   0,0   72   335   6,5   360   25,8   25,7   25,7 
 05-08-2021 09:00:00   18,3   17,9   17,5   0,0   72   279   7,2   13   25,8   25,8   25,7 
 05-08-2021 08:45:00   17,9   17,7   17,3   0,0   73   230   4,0   347   25,9   25,8   25,8 
 05-08-2021 08:30:00   17,8   17,5   17,4   0,0   73   182   3,6   325   25,9   25,9   25,9 
 05-08-2021 08:15:00   17,4   17,2   17,1   0,0   75   138   5,8   246   26,0   26,0   25,9 
 05-08-2021 08:00:00   17,1   16,9   16,8   0,0   77   98   9,0   248   26,2   26,1   26,0 
 05-08-2021 07:45:00   17,1   16,8   16,5   0,0   78   55   9,0   236   26,3   26,2   26,2 
 05-08-2021 07:30:00   16,9   16,8   16,6   0,0   78   15   7,9   269   26,4   26,3   26,3 
 05-08-2021 07:15:00   16,9   16,7   16,6   0,0   78   4   9,0   285   26,5   26,4   26,4 
 05-08-2021 07:00:00   17,0   16,8   16,5   0,0   78   0   13,7   265   26,6   26,6   26,5 
 05-08-2021 06:45:00   17,0   16,9   16,7   0,0   78   0   9,4   282   26,8   26,7   26,6 
 05-08-2021 06:30:00   17,1   17,0   16,9   0,0   77   0   10,1   284   26,9   26,8   26,8 
 05-08-2021 06:15:00   17,5   17,3   17,1   0,0   77   0   11,5   278   27,1   27,0   26,9 
 05-08-2021 06:00:00   17,5   17,3   17,2   0,0   77   0   9,0   279   27,2   27,1   27,0 
 05-08-2021 05:45:00   17,6   17,4   17,2   0,0   76   0   8,6   277   27,3   27,3   27,2 
 05-08-2021 05:30:00   17,7   17,5   17,3   0,0   76   0   9,0   282   27,5   27,4   27,3 
 05-08-2021 05:15:00   17,7   17,6   17,4   0,0   76   0   9,0   287   27,6   27,5   27,5 
 05-08-2021 05:00:00   17,7   17,6   17,5   0,0   76   0   9,4   289   27,7   27,7   27,6 
 05-08-2021 04:45:00   17,8   17,7   17,6   0,0   76   0   9,4   274   27,9   27,8   27,7 
 05-08-2021 04:30:00   17,9   17,8   17,7   0,0   76   0   10,1   275   28,0   27,9   27,9 
 05-08-2021 04:15:00   17,9   17,9   17,8   0,0   76   0   10,4   282   28,1   28,1   28,0 
 05-08-2021 04:00:00   17,9   17,8   17,7   0,0   76   0   11,5   274   28,3   28,2   28,1 
 05-08-2021 03:45:00   18,0   17,9   17,8   0,0   77   0   12,2   268   28,4   28,4   28,3 
 05-08-2021 03:30:00   18,1   18,0   17,9   0,0   76   0   12,2   262   28,7   28,6   28,4 
 05-08-2021 03:15:00   18,0   17,8   17,6   0,0   77   0   13,7   256   28,9   28,8   28,7 
 05-08-2021 03:00:00   18,2   18,0   17,8   0,0   76   0   10,1   259   29,0   29,0   28,9 
 05-08-2021 02:45:00   18,3   18,2   18,1   0,0   75   0   10,1   288   29,2   29,1   29,0 
 05-08-2021 02:30:00   18,3   18,3   18,2   0,0   75   0   9,4   303   29,3   29,3   29,2 
 05-08-2021 02:15:00   18,5   18,4   18,3   0,0   74   0   12,6   307   29,5   29,4   29,3 
 05-08-2021 02:00:00   18,5   18,5   18,4   0,0   74   0   12,6   294   29,6   29,6   29,5 
 05-08-2021 01:45:00   18,5   18,4   18,3   0,0   75   0   11,9   278   29,8   29,7   29,6 
 05-08-2021 01:30:00   18,6   18,5   18,4   0,0   74   0   11,9   269   30,0   29,9   29,8 
 05-08-2021 01:15:00   19,1   19,0   18,6   0,0   72   0   8,3   284   30,1   30,1   30,0 
 05-08-2021 01:00:00   19,1   19,0   19,0   0,0   72   0   9,0   299   30,3   30,2   30,1 
 05-08-2021 00:45:00   19,5   19,2   19,0   0,0   71   0   8,3   321   30,3   30,3   30,3 
 05-08-2021 00:30:00   19,8   19,6   19,5   0,0   69   0   10,1   344   30,3   30,3   30,3 
 05-08-2021 00:15:00   19,9   19,8   19,6   0,0   69   0   13,7   344   30,3   30,2   30,1 
 05-08-2021 00:00:00   19,7   19,6   19,5   0,0   69   0   13,7   1   30,1   30,1   30,0 
Datos diarios
Fecha desde Fecha hasta       Visualizar         Exportar Excel  
     
Alfaro - Fecha desde: 29-07-2021 - Fecha hasta: 04-08-2021
Fecha T (C) P (l/m2) Hr (%) Rs (W/m2) VV (km/h) DV Tint.(C)
Max Med Min Acu Med Med Max Med Max Med Min
 04-08-2021   27,4   21,9   17,1   0,2   59   308   41,8   205   31,5   28,8   26,3 
 03-08-2021   30,1   21,5   15,0   0,0   58   288   33,5   244   32,2   28,3   24,8 
 02-08-2021   28,5   20,2   12,6   0,0   56   336   32,8   209   31,5   26,7   22,8 
 01-08-2021   23,6   18,0   12,9   0,0   57   310   41,0   225   27,7   23,7   20,7 
 31-07-2021   20,2   18,4   15,7   0,0   64   147   40,3   324   29,4   25,6   23,9 
 30-07-2021   27,0   21,7   18,5   0,0   65   300   50,8   268   33,3   29,5   27,2 
 29-07-2021   33,9   23,5   17,0   0,0   61   272   32,8   197   34,0   29,5   25,9 
Datos mensuales
        Exportar      
   
Alfaro
Fecha T (C) P (l/m2) Hr (%) Rs (W/m2) VV (km/h) DV Tint.(C)
Max Med Min Acu Med Med Max Med Max Med Min
 Agosto -2021   30,1   20,4   12,6   0,2   58   311   41,8   221   32,2   26,9   20,7 
 Julio -2021   38,7   22,6   12,7   2,9   55   310   68,0   245   41,0   29,3   21,2 
 Junio -2021   34,3   20,4   10,7   38,8   62   303   61,2   222   37,4   27,1   17,8 
 Mayo -2021   29,9   16,2   4,3   47,1   59   275   96,8   215   32,4   22,4   12,5 
 Abril -2021   23,4   11,9   2,8   11,8   63   213   56,5   221   29,6   18,1   10,4 
 Marzo -2021   23,4   10,4   1,2   4,6   64   190   65,5   247   30,5   20,7   12,3 
 Febrero -2021   20,9   10,6   3,1   16,9   74   112   54,4   200   25,9   20,4   15,0 
 Enero -2021   18,2   6,4   -3,0   22,0   76   84   85,7   266   25,9   16,0   8,2 
 Diciembre -2020   13,6   7,2   -0,2   19,6   79   62   86,4   228   22,2   17,0   11,9 
 Noviembre -2020   21,7   10,7   0,1   17,7   81   80   47,5   213   24,0   16,2   7,2 
 Octubre -2020   24,2   13,9   3,4   19,4   69   137   70,9   226   26,6   18,6   11,9 
 Septiembre-2020   32,5   20,0   8,9   4,6   56   219   62,6   229   34,8   26,0   15,7 
PARÁMETROS
Desc. Abr. Descripción
T Temperatura del aire
P Precipitación acumulada
Hr Humedad relativa del aire
Rs Radiación solar
VV Velocidad del viento
DV Dirección del viento
Tint Temperatura interior
 
FUNCIONES
Desc. Abr. Descripción
Max Máxima
Med Media
Min Mínima
Acu Acumulado